sat.trackr.live / text

‹ back to catalog

STARLINK-30385

NORAD 57778 · 2023-134H

PAYLOAD ACTIVE UNKNOWN

§ Identity

Operator
Country
US
Launch date
2023-09-04
Launch site
AFETR
Launch vehicle
Mass (kg)
RCS (m²)

Purposes: comms

External: N2YO · Heavens-Above · Gunter

§ Orbital elements

Epoch: 2026-09-20T10:18:09.271872Z

Period
94.27 min
Inclination
43.0025°
Eccentricity
0.0001265
Mean motion
15.27575812 rev/d
Perigee alt
482.2 km
Apogee alt
483.9 km
Semi-major
6,861.2 km
B*
-2.3149e-5
RAAN
163.2195°
Arg perigee
262.5175°
Mean anomaly
97.5532°
Rev number
16,926

§ Raw data

STARLINK-303851 57778U 23134H   26263.42927398 -.00000899  00000+0 -23149-4 0  99902 57778  43.0025 163.2195 0001265 262.5175  97.5532 15.27575812169267

JSON: /api/v1/satellites/57778 · /tle

For live sub-satellite position, see the globe view (requires WebGL).

§ Visibility from observer

Set your observer location to see the next 7 days of passes ≥ 10°. The values pass through the URL so the page stays shareable.

No JS? Fill the form by hand. The geolocation button needs JavaScript.